Cortez, CO

1:08 AM MDT on March 29, 2017 (GMT -0600)
Cortez Municipal

Weather History for KCEZ - March, 2012

Change the Weather History Date:

Wednesday, March 7, 2012

  Actual Average Record
Temperature  
Mean Temperature 36 °F 37 °F  
Max Temperature 47 °F 52 °F 64 °F (2013)
Min Temperature 25 °F 22 °F 14 °F (2017)
Degree Days  
Heating Degree Days 29 28  
Month to date heating degree days 224 202  
Since 1 July heating degree days 4758 4932  
Cooling Degree Days 0 0  
Month to date cooling degree days 0 0  
Year to date cooling degree days 0 0  
Moisture  
Dew Point 20 °F    
Average Humidity 54    
Maximum Humidity 81    
Minimum Humidity 27    
Precipitation  
Precipitation 0.01 in 0.05 in 0.38 in (2011)
Month to date precipitation 0.22 0.35  
Year to date precipitation 2.10 2.24  
Sea Level Pressure  
Sea Level Pressure 29.71 in    
Wind  
Wind Speed 10 mph (South)    
Max Wind Speed 29 mph    
Max Gust Speed 35 mph    
Visibility 8 miles    
Events Fog , Snow    
T = Trace of Precipitation, MM = Missing Value Source: NWS Daily Summary

Daily Weather History Graph

Daily Weather History Graph

Search for Another Location

Airport or City:

Trip Planner

Search our weather history database for the weather conditions in past years. The results will help you decide how hot, cold, wet, or windy it might be!

Date:

Astronomy

Mar. 07, 2012 Rise Set
Actual Time 6:36 AM MST 6:14 PM MST
Civil Twilight 6:10 AM MST 6:40 PM MST
Nautical Twilight 5:40 AM MST 7:11 PM MST
Astronomical Twilight 5:09 AM MST 7:41 PM MST
Moon 5:54 PM MST (3/7) 5:48 AM MST (3/7)
Length of Visible Light 12h 30m
Length of Day
11h 38m
Waxing Gibbous, 99% of the Moon is Illuminated
Mar 7
Waxing Gibbous
Mar 8
Full
Mar 14
Last Quarter
Mar 22
New
Mar 30
First Quarter

Hourly Weather History & Observations

Time (MST) Temp. Windchill Dew Point Humidity Pressure Visibility Wind Dir Wind Speed Gust Speed Precip Events Conditions
12:53 AM 45.0 °F 37.6 °F 12.9 °F 27% 29.45 in 10.0 mi South 17.3 mph 24.2 mph N/A   Clear
1:53 AM 39.9 °F 33.4 °F 14.0 °F 35% 29.47 in 10.0 mi SSW 10.4 mph - N/A   Clear
2:53 AM 42.1 °F 34.9 °F 12.0 °F 29% 29.46 in 10.0 mi SSW 13.8 mph 20.7 mph N/A   Clear
3:53 AM 43.0 °F 34.8 °F 12.0 °F 28% 29.47 in 10.0 mi South 18.4 mph 26.5 mph N/A   Clear
4:53 AM 41.0 °F 34.7 °F 12.9 °F 32% 29.48 in 10.0 mi SSW 10.4 mph 23.0 mph N/A   Clear
5:53 AM 42.1 °F 34.9 °F 12.0 °F 29% 29.47 in 10.0 mi South 13.8 mph 25.3 mph N/A   Clear
6:53 AM 41.0 °F 33.1 °F 12.9 °F 32% 29.50 in 10.0 mi South 15.0 mph - N/A   Partly Cloudy
7:53 AM 44.1 °F 35.2 °F 14.0 °F 30% 29.51 in 10.0 mi South 23.0 mph 29.9 mph N/A   Scattered Clouds
8:53 AM 42.1 °F 34.9 °F 19.0 °F 40% 29.55 in 10.0 mi SW 13.8 mph 24.2 mph N/A   Overcast
9:53 AM 39.0 °F 29.0 °F 23.0 °F 53% 29.63 in 7.0 mi SW 20.7 mph 33.4 mph N/A   Overcast
10:05 AM 37.4 °F 29.8 °F 26.6 °F 65% 29.72 in 2.5 mi SW 11.5 mph 24.2 mph 0.00 in Snow Light Snow
10:07 AM 37.4 °F 28.9 °F 26.6 °F 65% 29.72 in 4.0 mi SSW 13.8 mph 23.0 mph 0.00 in Snow Light Snow
10:44 AM 35.6 °F 26.2 °F 26.6 °F 70% 29.76 in 2.0 mi South 15.0 mph 24.2 mph 0.00 in Snow Light Snow
10:47 AM 35.6 °F 24.2 °F 26.6 °F 70% 29.77 in 1.2 mi South 21.9 mph 28.8 mph 0.00 in Snow Light Snow
10:53 AM 33.1 °F 21.9 °F 28.9 °F 85% 29.71 in 0.5 mi South 18.4 mph 28.8 mph 0.00 in Fog , Snow Snow
11:17 AM 32.0 °F 27.5 °F 28.4 °F 87% 29.78 in 1.5 mi SSE 4.6 mph - 0.01 in Snow Light Snow
11:20 AM 33.8 °F 30.8 °F 28.4 °F 81% 29.78 in 2.5 mi SE 3.5 mph - 0.01 in Snow Light Snow
11:27 AM 33.8 °F 30.8 °F 28.4 °F 81% 29.77 in 7.0 mi NNE 3.5 mph - 0.01 in Snow Light Snow
11:44 AM 35.6 °F 29.9 °F 30.2 °F 81% 29.78 in 9.0 mi North 6.9 mph - 0.01 in   Overcast
11:53 AM 35.1 °F 28.6 °F 30.0 °F 82% 29.73 in 10.0 mi North 8.1 mph - 0.01 in   Overcast
12:53 PM 35.1 °F 26.4 °F 28.0 °F 76% 29.74 in 9.0 mi North 12.7 mph - 0.00 in   Overcast
1:53 PM 37.9 °F 33.5 °F 28.9 °F 70% 29.77 in 10.0 mi NE 5.8 mph - 0.00 in   Mostly Cloudy
2:53 PM 39.9 °F 36.7 °F 25.0 °F 55% 29.77 in 10.0 mi Variable 4.6 mph - N/A   Overcast
3:53 PM 41.0 °F - 14.0 °F 33% 29.76 in 10.0 mi Calm Calm - N/A   Partly Cloudy
4:53 PM 41.0 °F 37.1 °F 12.0 °F 31% 29.78 in 10.0 mi SSE 5.8 mph - N/A   Partly Cloudy
5:53 PM 39.0 °F 35.7 °F 10.9 °F 32% 29.81 in 10.0 mi SSE 4.6 mph - N/A   Partly Cloudy
6:53 PM 35.1 °F 32.2 °F 12.9 °F 40% 29.85 in 10.0 mi NW 3.5 mph - N/A   Clear
7:53 PM 30.0 °F - 17.1 °F 59% 29.88 in 10.0 mi Calm Calm - N/A   Clear
8:53 PM 27.0 °F 19.5 °F 19.0 °F 72% 29.93 in 10.0 mi ENE 6.9 mph - N/A   Clear
9:53 PM 25.0 °F 20.7 °F 19.0 °F 78% 29.98 in 10.0 mi NE 3.5 mph - N/A   Clear
10:53 PM 25.0 °F 17.1 °F 19.9 °F 81% 29.99 in 10.0 mi NNW 6.9 mph - N/A   Scattered Clouds
11:53 PM 28.0 °F 22.8 °F 21.0 °F 75% 29.99 in 10.0 mi ESE 4.6 mph - N/A   Overcast